[[{"header":{"parameterUnit":"m.s-1","parameterCategory":1,"la1":30.2991,"la2":30.254,"lo1":-89.0895,"lo2":-89.0444,"dy":0.0017,"dx":0.0017,"nx":28,"ny":28,"refTime":"2025-05-16T21:00:00:Z","depth":0,"parameterNumber":2,"parameterNumberName":"U-component_of_WINDS"},"data":[0,0,0,0,0,0,0,0,0,0,0,0,0,0,0,0,0,0,0,0,0,0,0,0,0,0,0,0,0,0,0,0,0,0,0,0,0,0,0,0,0,0,0,0,0,0,0,0,0,0,0,0,0,0,0,0,0,0,1.2655,1.2656,0,1.2745,1.2746,1.2747,1.274,1.2739,1.2737,1.2736,1.2829,1.2833,1.2836,0,0,0,0,0,0,0,0,0,0,0,0,0,1.2475,1.2479,1.2655,1.2656,1.2657,1.2745,1.2746,1.2747,1.274,1.2739,1.2737,1.2735,1.2828,1.2832,1.2837,0,0,0,0,0,0,0,0,0,0,0,0,0,1.2558,1.248,1.2654,1.2664,1.2666,1.2745,1.2746,1.2748,1.2741,1.2738,1.2736,1.2735,1.2826,1.2832,1.2837,1.2913,0,0,1.2854,1.2857,0,0,0,0,0,0,0,0,1.2554,1.2565,1.2661,1.2663,1.2665,1.2729,1.2717,1.2803,1.2741,1.2712,1.2736,1.2734,1.2797,1.2805,1.2827,1.2917,1.2921,1.2855,1.2858,1.2861,1.2862,0,0,0,0,0,0,0,1.2548,1.2561,1.269,1.2663,1.2665,1.2663,1.2673,1.2733,1.2765,1.2714,1.2714,1.2725,1.2798,1.2821,1.2829,1.2922,1.2855,1.286,1.2863,1.2865,1.3078,1.3081,0,0,0,0,0,0,1.254,1.2556,1.2687,1.2693,1.2603,1.2668,1.2679,1.2711,1.2764,1.2771,1.2727,1.2724,1.2813,1.2822,1.2832,1.2924,1.2861,1.2866,1.2869,1.3076,1.3079,1.3081,0,0,0,0,0,0,1.2536,1.2552,1.2684,1.2625,1.2641,1.2674,1.2709,1.2714,1.2737,1.2774,1.2779,1.2744,1.2812,1.2824,1.2893,1.2927,1.2868,1.2874,1.3074,1.3077,1.308,1.3107,0,0,0,0,0,0,1.2531,1.255,1.258,1.2625,1.2644,1.2743,1.2711,1.2717,1.2746,1.2744,1.2792,1.2798,1.2811,1.2884,1.2898,1.2933,1.2878,1.3071,1.3075,1.3079,1.3104,1.3111,1.3118,0,0,0,0,0,1.2525,1.2584,1.2581,1.2597,1.2682,1.2745,1.2756,1.277,1.2749,1.2779,1.2802,1.2796,1.2921,1.2891,1.2907,1.2944,1.3069,1.3074,1.3079,1.31,1.311,1.3118,0,0,0,0,0,0,1.2542,1.259,1.2588,1.2663,1.27,1.2744,1.2781,1.2779,1.2823,1.2819,1.2834,1.2845,1.2914,1.2936,1.2902,1.302,1.2992,1.3,1.3003,1.3012,1.3019,1.3012,1.2883,0,0,0,0,0,1.2554,1.2601,1.2641,1.2704,1.2723,1.2749,1.2777,1.2784,1.2823,1.2839,1.2867,1.2905,1.2952,1.2983,1.3029,1.3107,1.3117,1.314,1.3147,1.3153,1.316,1.3202,1.3213,1.3098,1.3098,1.3098,0,0,1.258,1.2613,1.2642,1.2708,1.2738,1.2786,1.2762,1.2815,1.2851,1.2847,1.2913,1.2935,1.2978,1.3051,1.3085,1.3072,1.3194,1.3159,1.3164,1.3168,1.3208,1.3219,1.3229,1.3102,1.3101,1.3101,0,0,1.2653,1.2683,1.2738,1.2768,1.2813,1.2829,1.2843,1.2887,1.2901,1.2967,1.2965,1.3008,1.309,1.3121,1.3147,1.323,1.3226,1.3245,1.3282,1.3323,1.3332,1.334,1.337,1.338,1.3252,1.3252,1.3252,0,1.2681,1.2754,1.2767,1.282,1.2849,1.2847,1.2903,1.2931,1.2989,1.3009,1.2993,1.3095,1.3124,1.3204,1.3224,1.3246,1.3261,1.324,1.333,1.3338,1.3346,1.3374,1.3385,1.3254,1.3254,1.3254,1.3253,0,1.2785,1.2836,1.2875,1.293,1.2964,1.3018,1.3039,1.3071,1.3076,1.3094,1.3161,1.3196,1.3248,1.3268,1.3272,1.3348,1.3338,1.3326,1.3299,1.3358,1.3385,1.3396,1.3257,1.3256,1.3255,1.3255,0,0,1.2872,1.2933,1.2947,1.2972,1.302,1.306,1.3113,1.3164,1.3192,1.3231,1.3276,1.3345,1.3334,1.3364,1.3372,1.3407,1.3471,1.3391,1.3392,1.3404,1.3556,1.3564,1.3577,1.3468,1.347,1.3472,1.3552,0,1.2949,1.3045,1.3058,1.3142,1.3189,1.3187,1.3234,1.3269,1.3287,1.3329,1.335,1.3398,1.338,1.3397,1.3433,1.3456,1.3501,1.345,1.351,1.3512,1.35,1.3591,1.3601,1.3674,1.3562,1.3564,1.3565,0,1.3053,1.3095,1.3184,1.3225,1.3245,1.3287,1.3335,1.3375,1.3414,1.3425,1.3458,1.3461,1.3517,1.3486,1.3563,1.3527,1.3553,1.3568,1.3571,1.3577,1.3543,1.3599,1.3698,1.3709,1.3582,1.3581,1.358,0,1.3107,1.3185,1.3249,1.327,1.332,1.3349,1.3372,1.3409,1.3438,1.348,1.3499,1.3546,1.3572,1.3609,1.3625,1.3601,1.37,1.3671,1.371,1.371,1.3731,1.373,1.3835,1.3748,1.3747,1.3747,1.3747,0,1.3192,1.3246,1.3273,1.3312,1.3373,1.3387,1.3447,1.3468,1.3501,1.3544,1.3545,1.3585,1.3604,1.3647,1.366,1.372,1.3732,1.3742,1.3745,1.3742,1.3741,1.3759,1.3754,1.375,1.3749,1.3749,1.3748,0,1.3263,1.3283,1.3352,1.3393,1.3405,1.3448,1.3483,1.3521,1.3539,1.3593,1.3606,1.3634,1.3684,1.3704,1.3765,1.3774,1.3844,1.3843,1.3831,1.3832,1.387,1.3866,1.3991,1.4008,1.3909,1.391,1.3911,0,1.3316,1.3358,1.3404,1.3432,1.3455,1.3502,1.3532,1.3547,1.3578,1.3625,1.3657,1.3707,1.3748,1.3829,1.3854,1.3901,1.3901,1.3942,1.3908,1.3904,1.3902,1.3899,1.3903,1.3948,1.3949,1.395,1.395,0,1.3408,1.3415,1.3459,1.3506,1.3541,1.3579,1.3616,1.3639,1.366,1.3695,1.3746,1.3778,1.384,1.389,1.3938,1.3961,1.3959,1.3961,1.3972,1.397,1.3961,1.3966,1.3848,1.3958,1.3957,1.3956,1.3956,1.3956,1.3471,1.3508,1.3546,1.3594,1.3623,1.3657,1.3694,1.3716,1.3759,1.3811,1.3818,1.3873,1.391,1.3974,1.3999,1.4042,1.4031,1.4048,1.4052,1.4056,1.4059,1.3954,1.4051,1.4051,1.4051,1.405,1.405,0,1.3563,1.3587,1.3631,1.3682,1.372,1.3715,1.3755,1.3786,1.3835,1.387,1.391,1.3968,1.4016,1.4045,1.4093,1.4122,1.4123,1.4134,1.4132,1.4138,1.4066,1.4051,1.4133,1.4133,1.4133,1.4133,1.4133,1.4133,1.3615,1.3677,1.3689,1.3765,1.3789,1.3843,1.3866,1.3897,1.3925,1.3991,1.403,1.4049,1.4081,1.4132,1.4175,1.4182,1.42,1.4213,1.4219,1.4151,1.4143,1.4135,1.4121,1.4216,1.4216,1.4287,1.4288,1.4288]},{"header":{"parameterUnit":"m.s-1","parameterCategory":1,"la1":30.2991,"la2":30.254,"lo1":-89.0895,"lo2":-89.0444,"dy":0.0017,"dx":0.0017,"nx":28,"ny":28,"refTime":"2025-05-16T21:00:00:Z","depth":0,"parameterNumber":3,"parameterNumberName":"V-component_of_WINDS"},"data":[0,0,0,0,0,0,0,0,0,0,0,0,0,0,0,0,0,0,0,0,0,0,0,0,0,0,0,0,0,0,0,0,0,0,0,0,0,0,0,0,0,0,0,0,0,0,0,0,0,0,0,0,0,0,0,0,0,0,4.4248,4.4248,0,4.4228,4.4228,4.4228,4.4171,4.417,4.4169,4.4167,4.4148,4.4149,4.415,0,0,0,0,0,0,0,0,0,0,0,0,0,4.4239,4.424,4.4248,4.4248,4.4248,4.4228,4.4228,4.4228,4.4171,4.417,4.4168,4.4167,4.4148,4.4149,4.415,0,0,0,0,0,0,0,0,0,0,0,0,0,4.4234,4.424,4.4248,4.4217,4.4214,4.4229,4.4228,4.4228,4.4172,4.417,4.4168,4.4166,4.4148,4.4149,4.415,4.4193,0,0,4.4153,4.4153,0,0,0,0,0,0,0,0,4.4234,4.4234,4.4222,4.4219,4.4216,4.42,4.4218,4.4216,4.4172,4.4188,4.4167,4.4165,4.4167,4.4166,4.4167,4.4192,4.4191,4.4153,4.4153,4.4154,4.4154,0,0,0,0,0,0,0,4.4234,4.4235,4.424,4.4222,4.4218,4.4205,4.4202,4.4217,4.4188,4.4186,4.4182,4.418,4.4165,4.4166,4.4166,4.4191,4.4153,4.4154,4.4154,4.4155,4.4252,4.4254,0,0,0,0,0,0,4.4239,4.4235,4.4241,4.424,4.4221,4.4207,4.4203,4.4207,4.4188,4.4183,4.4182,4.4178,4.4165,4.4165,4.4165,4.4215,4.4154,4.4155,4.4155,4.425,4.4252,4.4254,0,0,0,0,0,0,4.4239,4.424,4.4242,4.4236,4.4236,4.4209,4.4214,4.4208,4.4208,4.4185,4.4179,4.4188,4.4164,4.4164,4.4187,4.4213,4.4155,4.4156,4.4247,4.425,4.4253,4.4314,0,0,0,0,0,0,4.4239,4.424,4.4256,4.4237,4.4236,4.4263,4.4215,4.4209,4.421,4.4205,4.4189,4.4185,4.4162,4.4185,4.4188,4.4213,4.4157,4.4245,4.4249,4.4252,4.431,4.4319,4.4327,0,0,0,0,0,4.4239,4.4274,4.4257,4.4258,4.4255,4.4265,4.4264,4.4238,4.4213,4.4228,4.4213,4.4185,4.421,4.4188,4.419,4.4217,4.4243,4.4248,4.4252,4.4306,4.4317,4.4327,0,0,0,0,0,0,4.4297,4.4271,4.4252,4.4282,4.4276,4.4255,4.4274,4.425,4.4252,4.4246,4.4214,4.4211,4.4238,4.423,4.4206,4.4258,4.4222,4.4227,4.4262,4.4273,4.4281,4.4282,4.4158,0,0,0,0,0,4.4313,4.4323,4.43,4.4329,4.4327,4.4301,4.4305,4.4285,4.4277,4.4275,4.4261,4.4256,4.4262,4.4267,4.4272,4.4309,4.4304,4.4328,4.4337,4.4344,4.4348,4.4367,4.4378,4.4269,4.4269,4.4269,0,0,4.4347,4.4334,4.4342,4.434,4.4333,4.4345,4.43,4.4313,4.4321,4.4277,4.4297,4.4288,4.4279,4.4309,4.4322,4.4303,4.4378,4.4349,4.4355,4.4356,4.4373,4.4383,4.4393,4.4272,4.4271,4.4271,0,0,4.4414,4.4405,4.4428,4.4423,4.4413,4.4396,4.4402,4.4385,4.4376,4.4396,4.4363,4.4373,4.4385,4.4381,4.438,4.4447,4.4421,4.445,4.4494,4.4513,4.4522,4.4529,4.4553,4.4562,4.4454,4.4455,4.4455,0,4.4457,4.4472,4.4443,4.4459,4.446,4.442,4.4444,4.444,4.4432,4.4434,4.4413,4.4427,4.4419,4.4448,4.4464,4.4465,4.4471,4.4451,4.4523,4.453,4.4536,4.4559,4.4568,4.4458,4.4458,4.4457,4.4457,0,4.4526,4.4537,4.4557,4.4551,4.4554,4.4574,4.4548,4.4555,4.4535,4.4521,4.4542,4.4531,4.4533,4.4539,4.4519,4.4565,4.4554,4.4529,4.4491,4.4551,4.4571,4.458,4.4463,4.4462,4.4461,4.446,0,0,4.4628,4.4606,4.4614,4.4611,4.4597,4.4606,4.4625,4.4626,4.4632,4.4629,4.4644,4.4656,4.4633,4.4632,4.4612,4.4629,4.4683,4.4602,4.4601,4.4617,4.4733,4.4752,4.4762,4.4667,4.4668,4.4669,4.4734,0,4.4691,4.4721,4.4696,4.473,4.4741,4.4704,4.472,4.4714,4.4702,4.4709,4.4696,4.4704,4.4673,4.4672,4.4688,4.4674,4.4706,4.4669,4.468,4.4681,4.4683,4.4773,4.4792,4.4853,4.4742,4.4743,4.4744,0,4.4768,4.4768,4.4804,4.4789,4.4793,4.4808,4.4808,4.4815,4.4808,4.4798,4.4798,4.4774,4.4792,4.4757,4.4781,4.4756,4.476,4.4754,4.4756,4.4755,4.4716,4.4774,4.4872,4.4881,4.4756,4.4755,4.4754,0,4.4839,4.4848,4.487,4.4869,4.4852,4.4864,4.4858,4.4849,4.4852,4.4852,4.4854,4.4857,4.4858,4.4861,4.4839,4.4815,4.4867,4.4829,4.4859,4.4859,4.487,4.487,4.4969,4.4874,4.4874,4.4874,4.4873,0,4.4911,4.4935,4.4902,4.4916,4.4941,4.4913,4.4939,4.4929,4.4922,4.4933,4.4902,4.4914,4.4884,4.4893,4.4876,4.4899,4.49,4.4893,4.4888,4.4895,4.4896,4.4896,4.4891,4.4876,4.4875,4.4875,4.4875,0,4.4994,4.4973,4.4995,4.4978,4.4974,4.4993,4.4979,4.4991,4.4977,4.4993,4.4995,4.4973,4.4982,4.496,4.4966,4.4954,4.4987,4.4976,4.499,4.4986,4.5016,4.5014,4.5119,4.5132,4.5029,4.503,4.5031,0,4.5041,4.5058,4.5043,4.5049,4.5044,4.5053,4.5056,4.503,4.5034,4.5028,4.5042,4.5048,4.5052,4.5068,4.5053,4.5058,4.5046,4.5083,4.5046,4.5053,4.5046,4.5045,4.5046,4.509,4.5091,4.5092,4.5093,0,4.5128,4.5117,4.5122,4.5124,4.5128,4.5129,4.5127,4.5133,4.5105,4.5112,4.5121,4.5124,4.513,4.5137,4.5138,4.5132,4.5108,4.5105,4.5112,4.5119,4.5126,4.5122,4.5009,4.5102,4.5101,4.51,4.51,4.51,4.5193,4.5207,4.5199,4.5206,4.5202,4.5201,4.5212,4.52,4.5206,4.5209,4.5193,4.5206,4.5199,4.5199,4.5196,4.5205,4.5188,4.5199,4.5201,4.5204,4.5209,4.5125,4.5205,4.5205,4.5205,4.5205,4.5204,0,4.5278,4.5271,4.5278,4.5276,4.5282,4.5259,4.5256,4.5263,4.5274,4.527,4.5274,4.5285,4.5292,4.5278,4.5283,4.5293,4.5282,4.5295,4.5294,4.5293,4.5224,4.5217,4.5304,4.5304,4.5304,4.5304,4.5304,4.5304,4.5322,4.5344,4.5332,4.5352,4.5345,4.5357,4.5357,4.5357,4.5353,4.5367,4.5372,4.5363,4.5355,4.5359,4.5365,4.536,4.5363,4.538,4.5372,4.5308,4.5298,4.5288,4.5282,4.5381,4.5381,4.544,4.5441,4.5441]}]]